Time,TemperatureF,DewpointF,PressureIn,WindDirection,WindDirectionDegrees,WindSpeedMPH,WindSpeedGustMPH,Humidity,HourlyPrecipIn,Conditions,Clouds,dailyrainin,SoftwareType,DateUTC
2013-09-19 00:09:00,56.8,53.0,30.08,South,178,3.0,6.0,86,0.00,,,0.00,weatherlink.com 1.10,2013-09-19 04:09:00,
2013-09-19 00:24:00,56.8,53.0,30.08,South,175,4.0,7.0,86,0.00,,,0.00,weatherlink.com 1.10,2013-09-19 04:24:00,
2013-09-19 00:39:00,56.3,53.0,30.08,South,184,2.0,5.0,87,0.00,,,0.00,weatherlink.com 1.10,2013-09-19 04:39:00,
2013-09-19 00:54:00,55.9,52.0,30.07,South,186,3.0,6.0,87,0.00,,,0.00,weatherlink.com 1.10,2013-09-19 04:54:00,
2013-09-19 01:09:00,55.8,52.0,30.07,SW,214,4.0,6.0,88,0.00,,,0.00,weatherlink.com 1.10,2013-09-19 05:09:00,
2013-09-19 01:24:00,55.9,52.0,30.07,SSW,213,4.0,7.0,87,0.00,,,0.00,weatherlink.com 1.10,2013-09-19 05:24:00,
2013-09-19 01:39:00,55.8,52.0,30.08,SSW,196,5.0,8.0,88,0.00,,,0.00,weatherlink.com 1.10,2013-09-19 05:39:00,
2013-09-19 01:54:00,55.6,52.0,30.08,SSW,200,2.0,6.0,88,0.00,,,0.00,weatherlink.com 1.10,2013-09-19 05:54:00,
2013-09-19 02:09:00,55.3,52.0,30.08,South,189,2.0,6.0,89,0.00,,,0.00,weatherlink.com 1.10,2013-09-19 06:09:00,
2013-09-19 02:24:00,55.1,52.0,30.08,South,188,0.0,7.0,89,0.00,,,0.00,weatherlink.com 1.10,2013-09-19 06:24:00,
2013-09-19 02:39:00,54.8,52.0,30.08,SSW,194,2.0,5.0,89,0.00,,,0.00,weatherlink.com 1.10,2013-09-19 06:39:00,
2013-09-19 02:54:00,54.6,52.0,30.08,South,174,1.0,7.0,90,0.00,,,0.00,weatherlink.com 1.10,2013-09-19 06:54:00,
2013-09-19 03:10:00,54.6,52.0,30.07,SSW,196,2.0,6.0,90,0.00,,,0.00,weatherlink.com 1.10,2013-09-19 07:10:00,
2013-09-19 03:25:00,54.6,52.0,30.07,SSW,201,1.0,3.0,90,0.00,,,0.00,weatherlink.com 1.10,2013-09-19 07:25:00,
2013-09-19 03:40:00,54.6,52.0,30.07,SSW,195,1.0,7.0,90,0.00,,,0.00,weatherlink.com 1.10,2013-09-19 07:40:00,
2013-09-19 03:55:00,54.6,52.0,30.06,SSW,196,3.0,7.0,90,0.00,,,0.00,weatherlink.com 1.10,2013-09-19 07:55:00,
2013-09-19 04:10:00,54.4,52.0,30.06,SSW,211,2.0,4.0,91,0.00,,,0.00,weatherlink.com 1.10,2013-09-19 08:10:00,
2013-09-19 04:25:00,54.3,52.0,30.07,SSW,194,3.0,5.0,91,0.00,,,0.00,weatherlink.com 1.10,2013-09-19 08:25:00,
2013-09-19 04:40:00,54.0,52.0,30.07,South,172,5.0,7.0,92,0.00,,,0.00,weatherlink.com 1.10,2013-09-19 08:40:00,
2013-09-19 04:55:00,54.4,53.0,30.07,South,175,2.0,7.0,93,0.00,,,0.00,weatherlink.com 1.10,2013-09-19 08:55:00,
2013-09-19 05:10:00,55.4,54.0,30.06,South,185,5.0,8.0,93,0.00,,,0.00,weatherlink.com 1.10,2013-09-19 09:10:00,
2013-09-19 05:25:00,56.4,55.0,30.07,South,176,3.0,7.0,93,0.00,,,0.00,weatherlink.com 1.10,2013-09-19 09:25:00,
2013-09-19 05:40:00,57.4,56.0,30.06,SE,142,4.0,7.0,94,0.00,,,0.00,weatherlink.com 1.10,2013-09-19 09:40:00,
2013-09-19 05:55:00,58.0,56.0,30.06,South,177,4.0,7.0,94,0.00,,,0.00,weatherlink.com 1.10,2013-09-19 09:55:00,
2013-09-19 06:10:00,58.6,57.0,30.05,South,175,5.0,7.0,94,0.00,,,0.00,weatherlink.com 1.10,2013-09-19 10:10:00,
2013-09-19 06:25:00,59.2,58.0,30.05,SSE,154,2.0,9.0,94,0.00,,,0.00,weatherlink.com 1.10,2013-09-19 10:25:00,
2013-09-19 06:40:00,58.7,57.0,30.06,South,171,2.0,5.0,93,0.00,,,0.00,weatherlink.com 1.10,2013-09-19 10:40:00,
2013-09-19 06:55:00,58.1,56.0,30.06,SSW,198,2.0,7.0,94,0.00,,,0.00,weatherlink.com 1.10,2013-09-19 10:55:00,
2013-09-19 07:10:00,58.6,57.0,30.07,South,178,0.0,5.0,95,0.00,,,0.00,weatherlink.com 1.10,2013-09-19 11:10:00,
2013-09-19 07:25:00,59.4,58.0,30.07,SSW,192,5.0,7.0,94,0.00,,,0.00,weatherlink.com 1.10,2013-09-19 11:25:00,
2013-09-19 07:40:00,59.9,58.0,30.07,South,176,2.0,6.0,94,0.00,,,0.00,weatherlink.com 1.10,2013-09-19 11:40:00,
2013-09-19 07:55:00,59.7,58.0,30.07,SSE,163,1.0,5.0,93,0.00,,,0.00,weatherlink.com 1.10,2013-09-19 11:55:00,
2013-09-19 08:10:00,60.0,58.0,30.07,SSE,154,2.0,6.0,93,0.00,,,0.00,weatherlink.com 1.10,2013-09-19 12:10:00,
2013-09-19 08:25:00,60.4,58.0,30.07,South,174,1.0,7.0,92,0.00,,,0.00,weatherlink.com 1.10,2013-09-19 12:25:00,
2013-09-19 08:40:00,61.8,60.0,30.07,SSE,148,6.0,8.0,92,0.00,,,0.00,weatherlink.com 1.10,2013-09-19 12:40:00,
2013-09-19 08:55:00,63.1,60.0,30.08,SW,219,7.0,10.0,90,0.00,,,0.00,weatherlink.com 1.10,2013-09-19 12:55:00,
2013-09-19 09:10:00,63.8,60.0,30.08,South,173,6.0,13.0,88,0.00,,,0.00,weatherlink.com 1.10,2013-09-19 13:10:00,
2013-09-19 09:25:00,64.6,61.0,30.08,SSE,163,8.0,8.0,87,0.00,,,0.00,weatherlink.com 1.10,2013-09-19 13:25:00,
2013-09-19 09:40:00,64.8,61.0,30.09,SSW,194,8.0,13.0,86,0.00,,,0.00,weatherlink.com 1.10,2013-09-19 13:40:00,
2013-09-19 09:55:00,65.4,61.0,30.09,SSW,194,3.0,9.0,85,0.00,,,0.00,weatherlink.com 1.10,2013-09-19 13:55:00,
2013-09-19 10:10:00,66.0,61.0,30.09,SSE,162,7.0,11.0,84,0.00,,,0.00,weatherlink.com 1.10,2013-09-19 14:10:00,
2013-09-19 10:25:00,66.5,61.0,30.08,South,173,3.0,11.0,83,0.00,,,0.00,weatherlink.com 1.10,2013-09-19 14:25:00,
2013-09-19 10:40:00,68.5,63.0,30.07,SSW,213,4.0,7.0,81,0.00,,,0.00,weatherlink.com 1.10,2013-09-19 14:40:00,
2013-09-19 10:55:00,69.1,62.0,30.08,South,187,5.0,12.0,79,0.00,,,0.00,weatherlink.com 1.10,2013-09-19 14:55:00,
2013-09-19 11:11:00,69.9,63.0,30.08,WSW,237,2.0,7.0,78,0.00,,,0.00,weatherlink.com 1.10,2013-09-19 15:11:00,
2013-09-19 11:26:00,69.8,63.0,30.08,SW,220,3.0,7.0,78,0.00,,,0.00,weatherlink.com 1.10,2013-09-19 15:26:00,
2013-09-19 11:41:00,70.7,63.0,30.07,South,182,10.0,11.0,76,0.00,,,0.00,weatherlink.com 1.10,2013-09-19 15:41:00,
2013-09-19 11:56:00,71.3,63.0,30.06,South,185,6.0,11.0,74,0.00,,,0.00,weatherlink.com 1.10,2013-09-19 15:56:00,
2013-09-19 12:11:00,72.0,63.0,30.05,SSW,196,5.0,11.0,74,0.00,,,0.00,weatherlink.com 1.10,2013-09-19 16:11:00,
2013-09-19 12:26:00,71.9,63.0,30.05,SSW,211,3.0,12.0,73,0.00,,,0.00,weatherlink.com 1.10,2013-09-19 16:26:00,
2013-09-19 12:41:00,73.9,64.0,30.04,SW,219,5.0,10.0,70,0.00,,,0.00,weatherlink.com 1.10,2013-09-19 16:41:00,
2013-09-19 12:56:00,74.5,64.0,30.05,SSW,203,2.0,9.0,70,0.00,,,0.00,weatherlink.com 1.10,2013-09-19 16:56:00,
2013-09-19 13:11:00,74.6,63.0,30.04,SSW,198,2.0,9.0,68,0.00,,,0.00,weatherlink.com 1.10,2013-09-19 17:11:00,
2013-09-19 13:26:00,74.5,64.0,30.04,SW,224,1.0,5.0,69,0.00,,,0.00,weatherlink.com 1.10,2013-09-19 17:26:00,
2013-09-19 13:41:00,75.2,63.0,30.03,SW,236,4.0,11.0,66,0.00,,,0.00,weatherlink.com 1.10,2013-09-19 17:41:00,
2013-09-19 13:56:00,74.7,63.0,30.03,South,178,7.0,13.0,66,0.00,,,0.00,weatherlink.com 1.10,2013-09-19 17:56:00,
2013-09-19 14:11:00,75.2,63.0,30.02,SSW,203,6.0,10.0,67,0.00,,,0.00,weatherlink.com 1.10,2013-09-19 18:11:00,
2013-09-19 14:26:00,76.8,64.0,30.02,SW,235,4.0,8.0,64,0.00,,,0.00,weatherlink.com 1.10,2013-09-19 18:26:00,
2013-09-19 14:41:00,75.8,63.0,30.02,SSW,198,5.0,11.0,64,0.00,,,0.00,weatherlink.com 1.10,2013-09-19 18:41:00,
2013-09-19 14:56:00,76.1,63.0,30.02,SSE,153,6.0,9.0,64,0.00,,,0.00,weatherlink.com 1.10,2013-09-19 18:56:00,
2013-09-19 15:11:00,76.1,63.0,30.01,SSW,204,5.0,8.0,64,0.00,,,0.00,weatherlink.com 1.10,2013-09-19 19:11:00,
2013-09-19 15:26:00,76.7,63.0,30.01,SW,229,4.0,9.0,63,0.00,,,0.00,weatherlink.com 1.10,2013-09-19 19:26:00,
2013-09-19 15:41:00,77.1,63.0,30.00,SSW,202,2.0,8.0,63,0.00,,,0.00,weatherlink.com 1.10,2013-09-19 19:41:00,
2013-09-19 15:56:00,76.7,64.0,30.00,SW,232,3.0,8.0,64,0.00,,,0.00,weatherlink.com 1.10,2013-09-19 19:56:00,
2013-09-19 16:11:00,76.0,63.0,30.00,SSW,192,6.0,8.0,65,0.00,,,0.00,weatherlink.com 1.10,2013-09-19 20:11:00,
2013-09-19 16:26:00,75.7,63.0,30.00,South,173,6.0,10.0,64,0.00,,,0.00,weatherlink.com 1.10,2013-09-19 20:26:00,
2013-09-19 16:41:00,75.9,63.0,29.99,SSW,213,2.0,8.0,65,0.00,,,0.00,weatherlink.com 1.10,2013-09-19 20:41:00,
2013-09-19 16:56:00,76.1,63.0,29.99,SSW,211,2.0,7.0,65,0.00,,,0.00,weatherlink.com 1.10,2013-09-19 20:56:00,
2013-09-19 17:11:00,76.4,64.0,30.00,SSW,206,5.0,7.0,65,0.00,,,0.00,weatherlink.com 1.10,2013-09-19 21:11:00,
2013-09-19 17:26:00,74.6,63.0,30.00,WSW,237,3.0,8.0,68,0.00,,,0.00,weatherlink.com 1.10,2013-09-19 21:26:00,
2013-09-19 17:41:00,74.0,64.0,30.01,SSW,210,3.0,4.0,71,0.00,,,0.00,weatherlink.com 1.10,2013-09-19 21:41:00,
2013-09-19 17:56:00,72.9,63.0,30.01,SSW,192,1.0,5.0,71,0.00,,,0.00,weatherlink.com 1.10,2013-09-19 21:56:00,
2013-09-19 18:11:00,71.9,63.0,30.01,South,188,0.0,7.0,74,0.00,,,0.00,weatherlink.com 1.10,2013-09-19 22:11:00,
2013-09-19 18:26:00,71.0,63.0,30.00,South,188,0.0,4.0,77,0.00,,,0.00,weatherlink.com 1.10,2013-09-19 22:26:00,
2013-09-19 18:41:00,70.0,63.0,30.00,South,190,0.0,4.0,79,0.00,,,0.00,weatherlink.com 1.10,2013-09-19 22:41:00,
2013-09-19 18:56:00,69.4,63.0,30.00,South,190,0.0,2.0,81,0.00,,,0.00,weatherlink.com 1.10,2013-09-19 22:56:00,
2013-09-19 19:11:00,68.5,63.0,29.99,South,175,1.0,4.0,82,0.00,,,0.00,weatherlink.com 1.10,2013-09-19 23:11:00,
2013-09-19 19:26:00,67.7,63.0,29.99,SSW,193,1.0,4.0,84,0.00,,,0.00,weatherlink.com 1.10,2013-09-19 23:26:00,
2013-09-19 19:41:00,67.1,63.0,29.99,SSW,196,1.0,4.0,85,0.00,,,0.00,weatherlink.com 1.10,2013-09-19 23:41:00,
2013-09-19 20:11:00,66.1,62.0,29.98,South,182,2.0,5.0,87,0.00,,,0.00,weatherlink.com 1.10,2013-09-20 00:11:00,
2013-09-19 20:26:00,65.9,62.0,29.98,South,173,2.0,5.0,87,0.00,,,0.00,weatherlink.com 1.10,2013-09-20 00:26:00,
2013-09-19 20:41:00,65.5,62.0,29.99,South,182,3.0,5.0,87,0.00,,,0.00,weatherlink.com 1.10,2013-09-20 00:41:00,
2013-09-19 20:56:00,65.1,62.0,29.98,South,170,2.0,5.0,88,0.00,,,0.00,weatherlink.com 1.10,2013-09-20 00:56:00,
2013-09-19 21:11:00,64.7,62.0,29.98,South,175,3.0,6.0,89,0.00,,,0.00,weatherlink.com 1.10,2013-09-20 01:11:00,
2013-09-19 21:26:00,64.4,61.0,29.97,SSE,150,5.0,7.0,89,0.00,,,0.00,weatherlink.com 1.10,2013-09-20 01:26:00,
2013-09-19 21:41:00,64.1,61.0,29.97,ESE,121,3.0,5.0,90,0.00,,,0.00,weatherlink.com 1.10,2013-09-20 01:41:00,
2013-09-19 21:56:00,63.9,61.0,29.97,SSE,164,2.0,6.0,90,0.00,,,0.00,weatherlink.com 1.10,2013-09-20 01:56:00,
2013-09-19 22:11:00,63.7,61.0,29.97,SSE,166,2.0,6.0,90,0.00,,,0.00,weatherlink.com 1.10,2013-09-20 02:11:00,
2013-09-19 22:26:00,63.4,61.0,29.97,South,186,1.0,5.0,90,0.00,,,0.00,weatherlink.com 1.10,2013-09-20 02:26:00,
2013-09-19 22:41:00,63.0,60.0,29.97,South,171,1.0,5.0,91,0.00,,,0.00,weatherlink.com 1.10,2013-09-20 02:41:00,
2013-09-19 22:56:00,62.8,60.0,29.97,SSW,198,0.0,6.0,91,0.00,,,0.00,weatherlink.com 1.10,2013-09-20 02:56:00,
2013-09-19 23:11:00,62.5,60.0,29.98,South,187,2.0,5.0,91,0.00,,,0.00,weatherlink.com 1.10,2013-09-20 03:11:00,
2013-09-19 23:27:00,62.0,60.0,29.98,SSW,207,2.0,5.0,92,0.00,,,0.00,weatherlink.com 1.10,2013-09-20 03:27:00,
2013-09-19 23:42:00,61.9,60.0,29.98,South,190,3.0,6.0,93,0.00,,,0.00,weatherlink.com 1.10,2013-09-20 03:42:00,
2013-09-19 23:57:00,62.0,60.0,29.98,SSE,163,2.0,6.0,93,0.00,,,0.00,weatherlink.com 1.10,2013-09-20 03:57:00,